{"data":{"norad_id":54675,"intl_designator":"2022-166AK","name":"ONEWEB-0612","alt_names":[],"object_type":"PAYLOAD","status":"ACTIVE","operator":null,"country":"UK","launch_date":"2022-12-08","launch_site_code":"AFETR","launch_vehicle":null,"mission":null,"orbit_class":"UNKNOWN","rcs_meters":null,"size_class":null,"mass_kg":null,"dimensions":null,"purposes":["comms"],"wikipedia_slug":null,"has_3d_model":false,"image_url":null,"decayed_at":null,"tle_current":{"epoch":"2026-05-25T00:46:07.303872Z","epoch_age_seconds":75542,"freshness":"FRESH","line1":"1 54675U 22166AK  26145.03202898 -.00000002  00000+0 -37336-4 0  9993","line2":"2 54675  87.9264 248.5775 0002164  98.7890 261.3489 13.21827407168370","mean_motion":13.21827407,"eccentricity":0.0002164,"inclination_deg":87.9264,"raan_deg":248.5775,"arg_perigee_deg":98.789,"mean_anomaly_deg":261.3489,"bstar":-3.7336e-5,"rev_number":16837,"period_min":108.94009250937,"perigee_km":1176.1129130129,"apogee_km":1179.3831000438,"semimajor_km":7555.8850065284,"source":"CELESTRAK","updated_at":"2026-05-25T13:38:22.637152Z"}}}